Location: Cast�ra
(43.2745°N, 0.7792°E)
Time: 05:35:32
(UTC+00:00)

Daily predictions for brighter satellites

Satellite Brightness Start Highest point End
(mag) Time Altitude Azimuth Time Altitude Azimuth Time Altitude Azimuth
USA 215 4.0 03:00:40 10° NE 03:05:21 49° ENE 03:05:21 49° ENE
CZ-2C R/B 4.5 03:15:48 10° NE 03:19:49 23° E 03:20:21 23° ESE
USA 267 3.7 03:33:32 10° ESE 03:39:53 56° NNE 03:41:35 44° NNW
Cosmos 1727 Rocket 4.0 03:45:38 74° ENE 03:45:38 74° ENE 03:51:28 10° N
NOSS 3-3 (A) 4.5 03:45:58 47° SE 03:46:36 48° ESE 03:52:44 10° NE
SL-16 R/B 4.3 04:07:57 14° NNW 04:07:57 14° NNW 04:09:21 10° N
Cosmos 2100 Rocket 4.1 04:02:42 10° N 04:08:54 72° E 04:15:01 10° SSE
IDEFIX/ARIANE 42P 3.9 04:04:42 10° N 04:07:19 28° NNW 04:07:19 28° NNW
Sich 1 4.3 04:07:41 10° N 04:11:47 40° ENE 04:15:52 10° SSE
Meteor 1-31 Rocket 4.2 04:09:14 10° NNE 04:12:48 35° E 04:13:41 31° SE
ATLAS 2AS CENTAUR R/B 4.1 04:05:58 10° NNW 04:13:02 37° NE 04:19:34 10° ESE
Atlas Centaur 2 3.9 04:12:51 28° SSW 04:14:30 30° S 04:21:26 10° ESE
DELTA 2 R/B (1) 3.7 04:16:49 60° S 04:16:53 60° S 04:22:22 10° E
Cosmos 1943 3.8 04:19:42 42° NNW 04:19:42 42° NNW 04:24:11 10° NNE
MSX 3.8 04:15:17 10° N 04:20:45 60° WNW 04:20:45 60° WNW
STARLINK-1162 4.3 04:27:53 44° ENE 04:27:53 44° ENE 04:30:36 10° ESE
Cosmos 1805 Rocket 3.4 04:24:49 10° N 04:29:11 87° E 04:33:32 10° S
Cosmos 676 Rocket 3.9 04:29:10 65° W 04:29:28 66° WNW 04:34:49 10° NNE
STARLINK-1157 4.1 04:30:38 48° ENE 04:30:38 48° ENE 04:33:29 10° ESE
STARLINK-1159 3.9 04:33:30 53° ENE 04:33:30 53° ENE 04:36:30 10° ESE
PAYLOAD A 3.9 04:28:16 10° N 04:33:15 63° WNW 04:33:43 60° W
STARLINK-1171 3.7 04:36:26 59° ENE 04:36:26 59° ENE 04:39:34 10° ESE
STARLINK-1155 3.5 04:39:14 65° ENE 04:39:14 65° ENE 04:42:30 10° ESE
ADEOS 3.7 04:35:15 10° N 04:40:18 50° WNW 04:40:38 49° W
STARLINK-1166 3.3 04:42:10 71° NE 04:42:10 71° NE 04:45:33 10° ESE
SL-8 R/B 4.1 04:40:42 39° SSW 04:42:08 55° SSE 04:46:51 10° ENE
STARLINK-1165 3.2 04:45:03 76° NE 04:45:03 76° NE 04:48:33 10° ESE
CZ-4B R/B 4.0 04:41:28 10° NNE 04:45:56 90° NE 04:49:31 16° SSW
STARLINK-1169 3.1 04:47:55 78° N 04:48:02 81° NE 04:51:34 10° ESE
Cosmos 2061 Rocket 3.9 04:42:22 10° N 04:48:38 87° W 04:54:50 10° S
USA 215 3.8 04:43:53 10° NE 04:49:59 44° NNW 04:52:43 30° WNW
STARLINK-1178 3.0 04:50:47 76° NW 04:51:02 85° NE 04:54:33 10° SE
Spot 2 4.2 04:49:26 10° N 04:53:33 51° WNW 04:54:12 46° WSW
Cosmos 1328 Rocket 4.4 04:49:25 10° SSE 04:53:42 51° E 04:58:01 10° NNE
STARLINK-1120 3.0 04:53:37 71° NW 04:53:58 90° NNW 04:57:29 10° SE
Cosmos 1802 Rocket 4.0 04:48:31 10° NNW 04:54:55 69° W 05:01:14 10° S
STARLINK-1131 3.0 04:56:31 65° WNW 04:57:00 85° SW 05:00:31 10° SE
CZ-2C R/B 2.8 04:53:24 10° N 04:58:14 43° WNW 04:59:44 34° WSW
Cosmos 1315 Rocket 4.0 04:54:55 10° SSE 04:58:38 42° E 05:02:21 10° NNE
Cosmos 1140 Rocket 4.5 04:58:50 28° WNW 04:58:50 28° WNW 05:03:18 10° N
Cosmos 1400 Rocket 2.7 04:57:03 30° SSW 04:58:55 65° WNW 05:03:01 10° N
Cosmos 2016 Rocket 3.9 04:52:41 10° N 04:59:00 76° W 05:05:20 10° S
ISS -3.6 04:59:19 55° NW 04:59:29 56° NNW 05:02:49 10° NE
STARLINK-1190 3.0 04:59:28 59° WNW 05:00:03 80° SW 05:03:34 10° SE
ALOS 2.7 04:58:43 10° NNE 05:03:22 64° E 05:07:59 10° S
SJ-12 4.3 05:01:25 10° NNE 05:05:33 65° ESE 05:09:40 10° S
Meteor PRIRODA 3.5 05:02:22 10° NNE 05:06:03 88° WNW 05:09:42 10° SSW
TELKOM 3 3.8 05:10:10 38° SSE 05:10:10 38° SSE 05:11:39 10° SE
H-2A R/B 2.7 05:07:28 10° N 05:11:51 54° WNW 05:16:15 10° SSW
Cosmos 2233 Rocket 4.3 05:06:13 10° N 05:12:32 73° E 05:18:50 10° SSE
Cosmos 1484 Rocket 2.8 05:12:12 10° N 05:16:10 59° WNW 05:20:06 10° SSW
GEOS 3 Rocket 4.4 05:11:47 10° NE 05:17:01 54° ESE 05:22:14 10° SSW
Cosmos 1633 Rocket 3.0 05:13:15 10° NNW 05:17:37 67° W 05:21:59 10° S
ADEOS Rocket 4.1 05:13:48 10° SE 05:20:11 54° ENE 05:27:17 10° N
FENGYUN 3A 3.7 05:14:51 10° NNE 05:20:20 88° ESE 05:25:46 10° SSW
Cosmos 1238 Rocket 3.8 05:16:07 10° NNW 05:20:55 36° W 05:24:57 10° SSW
Cosmos 1515 Rocket 4.1 05:18:06 10° S 05:22:28 63° E 05:26:50 10° NNE
USA 267 3.5 05:16:39 10° SSE 05:22:56 49° SW 05:28:58 11° WNW
STARLINK-1149 3.7 05:23:15 27° SW 05:23:17 27° SW 05:25:46 10° SSE
Cosmos 1606 2.8 05:20:42 10° S 05:24:29 77° E 05:28:15 10° N
BREEZE-M DEB (TANK) 3.7 05:20:57 13° WNW 05:26:07 45° NNE 05:29:50 10° E
Okean O Rocket 2.9 05:21:59 10° NNE 05:26:10 44° E 05:30:18 10° S
Cosmos 1666 Rocket 3.9 05:23:25 10° NNW 05:27:35 42° W 05:31:41 10° SSW
Cosmos 1933 Rocket 4.1 05:23:46 10° N 05:28:04 60° E 05:32:21 10° SSE
COSMO-SKYMED 1 2.5 05:24:49 10° S 05:29:06 60° W 05:33:24 10° NNW
NOSS 3-4 (A) 4.0 05:23:02 10° NW 05:30:05 79° NE 05:37:52 10° SE
NOSS 3-4 (C) 4.0 05:23:08 10° NW 05:30:12 78° NE 05:37:57 10° SE
Cosmos 2084 Rocket 4.4 05:26:50 10° NNW 05:31:12 51° NE 05:35:33 10° SE
BREEZE-M DEB (TANK) 2.6 05:28:23 15° WSW 05:32:35 76° NNW 05:35:07 10° ENE
STARLINK-1129 3.7 05:31:11 22° W 05:33:00 40° SW 05:36:21 10° SSE
Cosmos 1850 Rocket 4.3 05:29:30 10° SW 05:34:34 46° WNW 05:39:38 10° N
CZ-4B R/B 3.5 05:32:41 10° N 05:35:45 27° WNW 05:38:26 12° SW
BREEZE-M DEB (TANK) 4.4 05:33:16 15° WNW 05:37:41 66° SSW 05:57:53 10° SE
COSMOS 2455 3.2 05:32:37 10° NNW 05:38:39 70° ENE 05:44:38 10° SE
STARLINK-1134 4.0 05:37:57 18° W 05:40:02 35° SW 05:43:17 10° SSE
Shenzhou-11 Module 3.4 05:40:03 16° SW 05:40:58 19° SSW 05:42:56 10° SSE
STARLINK-1135 4.1 05:40:55 17° W 05:43:07 32° SW 05:46:20 10° SSE
Cosmos 2228 Rocket 3.6 05:39:04 10° S 05:43:24 63° E 05:47:50 10° NNE
STARLINK-1141 4.2 05:43:55 16° W 05:46:14 31° SW 05:49:24 10° SSE
Meteor 1-31 Rocket 4.3 05:44:21 10° NNW 05:46:57 18° WNW 05:49:04 12° WSW
PAYLOAD B 4.2 05:41:44 10° NNE 05:47:19 85° WNW 05:52:50 10° SSW
Cosmos 1346 Rocket 3.0 05:44:53 10° NNW 05:48:38 45° W 05:52:20 10° SSW
Sich 1 4.4 05:46:14 10° NW 05:49:07 18° W 05:52:00 10° SW
STARLINK-1140 4.3 05:46:57 14° W 05:49:21 29° SW 05:52:28 10° SSE
ERBS 2.8 05:46:38 13° WSW 05:49:22 42° NW 05:52:35 10° NE
STARLINK-1156 4.4 05:49:58 13° W 05:52:29 27° SW 05:55:33 10° SSE
Cosmos 1340 3.4 05:50:06 10° NNW 05:53:25 29° W 05:56:42 10° SSW
STARLINK-1148 4.4 05:53:00 12° W 05:55:37 25° SW 05:58:37 10° S
PSLV R/B 4.5 05:52:27 10° N 05:55:53 32° WNW 05:59:22 10° SW
METEOR-M 4.4 05:51:19 10° N 05:56:25 47° WNW 06:01:30 10° SW
Meteor 1-25 Rocket 4.2 05:53:43 10° NNW 05:59:17 77° W 06:04:51 10° S
H-2A R/B 3.4 05:56:20 10° NNE 06:00:01 59° E 06:03:39 10° S
Cosmos 1151 Rocket 3.8 05:57:41 10° SW 06:01:30 30° WNW 06:05:22 10° NNW
DELTA 2 R/B (1) 4.2 05:57:40 10° W 06:03:00 46° SSW 06:08:18 10° SE
Atlas Centaur 2 4.2 05:56:33 10° WSW 06:03:19 31° S 06:10:29 10° SE
Cosmos 1814 Rocket 4.0 05:58:41 10° NNW 06:03:54 67° WSW 06:09:08 10° S
ATLAS 2AS CENTAUR R/B 2.9 05:57:03 10° NW 06:04:25 61° WSW 06:11:09 10° SSE
Cosmos 1470 Rocket 4.2 06:04:03 10° NNW 06:08:07 35° W 06:12:11 10° SSW
Cosmos 841 Rocket 3.7 06:05:59 10° NNW 06:11:04 51° WSW 06:16:09 10° S
Cosmos 1763 Rocket 4.4 06:07:29 10° NW 06:11:57 28° W 06:16:23 10° SSW
